| time (UTC) | temp F | wind direction | speed MPH | gust MPH | rain 1hr in | rain 24hr in | rain mn in | humidity % | barometer mb |
| 20260506214551 | 57 | 41 | 2.0 | 9.0 | 0.00 | 0.00 | 0.00 | 37 | 1011.0 |
| 20260506213055 | 56 | 299 | 1.0 | 6.0 | 0.00 | 0.00 | 0.00 | 38 | 1010.9 |
| 20260506211555 | 57 | 306 | 3.0 | 9.0 | 0.00 | 0.00 | 0.00 | 36 | 1011.0 |
| 20260506210054 | 56 | 266 | 2.0 | 10.0 | 0.00 | 0.00 | 0.00 | 35 | 1011.1 |
| 20260506204552 | 56 | 264 | 2.0 | 9.0 | 0.00 | 0.00 | 0.00 | 34 | 1011.0 |
| 20260506203052 | 57 | 326 | 2.0 | 12.0 | 0.00 | 0.00 | 0.00 | 33 | 1011.1 |
| 20260506201551 | 57 | 359 | 1.0 | 6.0 | 0.00 | 0.00 | 0.00 | 34 | 1011.3 |
| 20260506200051 | 56 | 0 | 2.0 | 6.0 | 0.00 | 0.00 | 0.00 | 36 | 1011.4 |
| 20260506194550 | 56 | 244 | 1.0 | 8.0 | 0.00 | 0.00 | 0.00 | 36 | 1011.6 |
| 20260506193056 | 56 | 301 | 1.0 | 10.0 | 0.00 | 0.00 | 0.00 | 38 | 1011.8 |
| 20260506191559 | 55 | 271 | 2.0 | 9.0 | 0.00 | 0.00 | 0.00 | 39 | 1011.8 |
| 20260506190054 | 55 | 338 | 2.0 | 5.0 | 0.00 | 0.00 | 0.00 | 38 | 1011.8 |
| 20260506184558 | 56 | 285 | 1.0 | 6.0 | 0.00 | 0.00 | 0.00 | 39 | 1011.9 |
| 20260506183101 | 55 | 297 | 4.0 | 12.0 | 0.00 | 0.00 | 0.00 | 38 | 1011.8 |
| 20260506181607 | 55 | 262 | 2.0 | 8.0 | 0.00 | 0.00 | 0.00 | 38 | 1011.7 |
| 20260506180057 | 56 | 355 | 1.0 | 7.0 | 0.00 | 0.00 | 0.00 | 39 | 1011.7 |
| 20260506174552 | 55 | 297 | 3.0 | 10.0 | 0.00 | 0.00 | 0.00 | 37 | 1011.8 |
| 20260506173123 | 56 | 253 | 2.0 | 7.0 | 0.00 | 0.00 | 0.00 | 38 | 1011.8 |
| 20260506171558 | 55 | 316 | 2.0 | 11.0 | 0.00 | 0.00 | 0.00 | 38 | 1011.9 |
| 20260506170109 | 55 | 273 | 1.0 | 7.0 | 0.00 | 0.00 | 0.00 | 39 | 1011.9 |
| 20260506164556 | 55 | 345 | 1.0 | 7.0 | 0.00 | 0.00 | 0.00 | 38 | 1011.9 |
| 20260506163059 | 56 | 326 | 0.0 | 7.0 | 0.00 | 0.00 | 0.00 | 36 | 1011.8 |
| 20260506161551 | 55 | 0 | 1.0 | 8.0 | 0.00 | 0.00 | 0.00 | 39 | 1011.8 |
| 20260506160052 | 54 | 274 | 0.0 | 5.0 | 0.00 | 0.00 | 0.00 | 36 | 1011.8 |
| 20260506154609 | 53 | 277 | 1.0 | 10.0 | 0.00 | 0.00 | 0.00 | 37 | 1011.8 |
| 20260506153053 | 53 | 292 | 0.0 | 6.0 | 0.00 | 0.00 | 0.00 | 38 | 1011.7 |
| 20260506151611 | 53 | 237 | 1.0 | 4.0 | 0.00 | 0.00 | 0.00 | 36 | 1011.9 |
| 20260506150059 | 52 | 44 | 1.0 | 8.0 | 0.00 | 0.00 | 0.00 | 38 | 1011.8 |
| 20260506144604 | 53 | 296 | 1.0 | 4.0 | 0.00 | 0.00 | 0.00 | 38 | 1012.0 |
| 20260506143101 | 52 | 250 | 1.0 | 7.0 | 0.00 | 0.00 | 0.00 | 38 | 1012.0 |
| 20260506141603 | 51 | 0 | 0.0 | 2.0 | 0.00 | 0.00 | 0.00 | 42 | 1012.0 |
| 20260506140101 | 51 | 0 | 0.0 | 1.0 | 0.00 | 0.00 | 0.00 | 45 | 1011.9 |
| 20260506134556 | 49 | 0 | 0.0 | 1.0 | 0.00 | 0.05 | 0.00 | 47 | 1011.7 |
| 20260506133127 | 49 | 0 | 0.0 | 1.0 | 0.00 | 0.05 | 0.00 | 50 | 1011.4 |
| 20260506131555 | 48 | 360 | 0.0 | 0.0 | 0.00 | 0.05 | 0.00 | 55 | 1011.2 |
| 20260506130121 | 47 | 0 | 0.0 | 0.0 | 0.00 | 0.05 | 0.00 | 60 | 1011.4 |
| 20260506124554 | 46 | 0 | 0.0 | 0.0 | 0.00 | 0.13 | 0.00 | 64 | 1011.1 |
| 20260506123050 | 45 | 0 | 0.0 | 1.0 | 0.00 | 0.13 | 0.00 | 66 | 1011.0 |
| 20260506121553 | 44 | 0 | 0.0 | 1.0 | 0.00 | 0.13 | 0.00 | 69 | 1010.8 |
| 20260506120053 | 42 | 0 | 0.0 | 0.0 | 0.00 | 0.13 | 0.00 | 71 | 1010.8 |
| 20260506114556 | 41 | 0 | 0.0 | 0.0 | 0.00 | 0.14 | 0.00 | 73 | 1010.8 |
| 20260506113050 | 40 | 0 | 0.0 | 0.0 | 0.00 | 0.14 | 0.00 | 73 | 1010.6 |
| 20260506111553 | 40 | 0 | 0.0 | 1.0 | 0.00 | 0.14 | 0.00 | 74 | 1010.4 |
| 20260506110051 | 40 | 0 | 0.0 | 0.0 | 0.00 | 0.14 | 0.00 | 74 | 1010.3 |
| 20260506104614 | 40 | 0 | 0.0 | 0.0 | 0.00 | 0.14 | 0.00 | 73 | 1010.0 |
| 20260506103052 | 40 | 0 | 0.0 | 0.0 | 0.00 | 0.14 | 0.00 | 71 | 1009.7 |
| 20260506101553 | 41 | 0 | 0.0 | 0.0 | 0.00 | 0.14 | 0.00 | 70 | 1009.5 |
| 20260506100055 | 41 | 0 | 0.0 | 0.0 | 0.00 | 0.14 | 0.00 | 68 | 1009.6 |
| 20260506094552 | 42 | 0 | 0.0 | 0.0 | 0.00 | 0.14 | 0.00 | 66 | 1009.6 |
| 20260506093052 | 42 | 0 | 0.0 | 0.0 | 0.00 | 0.14 | 0.00 | 65 | 1009.8 |
| 20260506091555 | 42 | 0 | 0.0 | 0.0 | 0.00 | 0.14 | 0.00 | 65 | 1009.5 |
| 20260506090057 | 43 | 0 | 0.0 | 0.0 | 0.00 | 0.14 | 0.00 | 63 | 1009.7 |
| 20260506084553 | 43 | 0 | 0.0 | 0.0 | 0.00 | 0.14 | 0.00 | 60 | 1009.6 |
| 20260506083058 | 44 | 0 | 0.0 | 0.0 | 0.00 | 0.14 | 0.00 | 57 | 1009.5 |
| 20260506081558 | 45 | 0 | 0.0 | 1.0 | 0.00 | 0.14 | 0.00 | 56 | 1009.5 |
| 20260506073054 | 46 | 0 | 0.0 | 1.0 | 0.00 | 0.14 | 0.00 | 54 | 1009.1 |
| 20260506071606 | 47 | 0 | 0.0 | 1.0 | 0.00 | 0.14 | 0.00 | 54 | 1009.0 |
| 20260506061551 | 49 | 0 | 0.0 | 3.0 | 0.00 | 0.14 | 0.00 | 48 | 1008.9 |
| 20260506044608 | 52 | 288 | 0.0 | 2.0 | 0.00 | 0.14 | 0.14 | 43 | 1008.3 |
| 20260506043056 | 52 | 0 | 0.0 | 4.0 | 0.00 | 0.14 | 0.14 | 42 | 1008.4 |
| 20260506041555 | 52 | 0 | 0.0 | 2.0 | 0.00 | 0.14 | 0.14 | 45 | 1008.4 |
| 20260506040052 | 52 | 259 | 0.0 | 3.0 | 0.00 | 0.14 | 0.14 | 46 | 1008.6 |
| 20260506034557 | 52 | 0 | 0.0 | 1.0 | 0.00 | 0.14 | 0.14 | 47 | 1008.2 |
| 20260506033056 | 52 | 248 | 0.0 | 0.0 | 0.00 | 0.14 | 0.14 | 46 | 1008.3 |
| 20260506031555 | 52 | 0 | 0.0 | 2.0 | 0.00 | 0.14 | 0.14 | 46 | 1007.9 |
| 20260506030054 | 52 | 0 | 0.0 | 2.0 | 0.00 | 0.14 | 0.14 | 46 | 1007.8 |
| 20260506024549 | 52 | 0 | 0.0 | 1.0 | 0.00 | 0.14 | 0.14 | 46 | 1007.8 |
| 20260506023056 | 53 | 259 | 0.0 | 1.0 | 0.00 | 0.14 | 0.14 | 46 | 1007.8 |
| 20260506021558 | 53 | 0 | 0.0 | 1.0 | 0.00 | 0.14 | 0.14 | 46 | 1007.6 |
| 20260506020050 | 53 | 0 | 0.0 | 1.0 | 0.00 | 0.14 | 0.14 | 44 | 1007.5 |
| 20260506014551 | 53 | 0 | 0.0 | 1.0 | 0.00 | 0.14 | 0.14 | 44 | 1007.2 |
| 20260506013051 | 53 | 0 | 0.0 | 0.0 | 0.00 | 0.14 | 0.14 | 43 | 1007.1 |
| 20260506011554 | 54 | 0 | 0.0 | 1.0 | 0.00 | 0.14 | 0.14 | 41 | 1006.8 |
| 20260506010056 | 54 | 0 | 0.0 | 1.0 | 0.00 | 0.14 | 0.14 | 41 | 1006.6 |
| 20260506004548 | 54 | 0 | 0.0 | 5.0 | 0.00 | 0.14 | 0.14 | 39 | 1006.5 |
| 20260506003054 | 54 | 293 | 0.0 | 3.0 | 0.00 | 0.14 | 0.14 | 39 | 1006.3 |
| 20260506001604 | 55 | 0 | 0.0 | 4.0 | 0.00 | 0.14 | 0.14 | 38 | 1006.4 |
| 20260506000053 | 55 | 0 | 0.0 | 5.0 | 0.00 | 0.14 | 0.14 | 38 | 1006.1 |
| 20260505234610 | 55 | 0 | 0.0 | 5.0 | 0.00 | 0.14 | 0.14 | 38 | 1006.2 |
| 20260505233051 | 55 | 262 | 0.0 | 3.0 | 0.00 | 0.14 | 0.14 | 37 | 1006.5 |
| 20260505231551 | 56 | 46 | 1.0 | 4.0 | 0.00 | 0.14 | 0.14 | 36 | 1006.4 |
| 20260505230053 | 56 | 273 | 0.0 | 3.0 | 0.00 | 0.14 | 0.14 | 37 | 1006.4 |
| 20260505224552 | 56 | 285 | 0.0 | 2.0 | 0.00 | 0.14 | 0.14 | 37 | 1006.5 |
| 20260505223104 | 56 | 243 | 1.0 | 7.0 | 0.00 | 0.14 | 0.14 | 35 | 1006.7 |
| 20260505221551 | 56 | 0 | 1.0 | 6.0 | 0.00 | 0.14 | 0.14 | 35 | 1006.5 |
| 20260505220055 | 56 | 293 | 1.0 | 5.0 | 0.00 | 0.14 | 0.14 | 33 | 1006.8 |